SCP
0 0 0 0 0 0 0 0 0 0 0 0 0 0 0 0 0 0 0 0 0 0 0 0 0 0 0 0 0 0 0 0 0 0 0 0 0 0 0 0 0 0 0 0 0 0 0 0 0 0 0 0 0 0
-0 0 0 0 0 0 0 0 0 0 0 0 0 0 0 0 0 0 0 0 0 0 0 0 0 0 0 0 0 0 0 0 0 0 0 0 0 0 0 0 0 0 0 0 0 0 0 0 0 0 0 0 0 0
0 0 0 0 0 0 0 0 0 0 0 0 0 0 0 0 0 0 0 0 0 0 0 0 0 0 0 0 0 0 0 0 0 0 0 0 0 0 0 0 0 0 0 0 0 0 0 0 0 0 0 0 0 0
0 -0 0 0 0 0 0 0 0 0 0 0 0 0 0 0 0 0 0 0 0 0 0 0 0 0 0 0 0 0 0 0 0 0 0 0 0 0 0 0 0 0 0 0 0 0 0 0 0 0 0 0 0 0
0 0 0 0 0 0 0 0 0 0 0 0 0 0 0 0 0 0 0 0 0 0 0 0 0 0 0 0 0 0 0 0 0 0 0 0 0 0 0 0 0 0 0 0 0 0 0 0 0 0 0 0 0 0
0 0 0 0 0 0 0 0 0 0 0 0 0 0 0 0 0 0 0 0 0 0 0 0 0 0 0 0 0 0 0 0 0 0 0 0 0 0 0 0 0 0 0 0 0 0 0 0 0 0 0 0 0 0
0 0 0 0 0 0 0 0 0 0 0 0 0 0 0 0 0 0 0 0 0 0 0 0 0 0 0 0 0 0 0 0 0 0 0 0 0 0 0 0 0 0 0 0 0 0 0 0 0 0 0 0 0 0
0 0 0 0 0 0 0 0 0 0 0 0 0 0 0 0 0 0 0 0 0 0 0 0 0 0 0 0 0 0 0 0 0 0 0 0 0 0 0 0 0 0 0 0 0 0 0 0 0 0 0 0 0 0
0 0 0 0 0 0 0 0 0 0 0 0 0 0 0 0 0 0 0 0 0 0 0 0 0 0 0 0 0 0 0 0 0 0 0 0 0 0 0 0 0 0 0 0 0 0 0 0 0 0 0 0 0 0
0 0 0 0 0 0 0 0 0 0 0 0 0 0 0 0 0 0 0 0 0 0 0 0 0 0 0 0 0 0 0 0 0 0 0 0 0 0 0 0 0 0 0 0 0 0 0 0 0 0 0 0 0 0
0 0 0 0 0 0 0 0 0 0 0 0 0 0 0 0 0 0 0 0 0 0 0 0 0 0 0 0 0 0 0 0 0 0 0 0 0 0 0 0 0 0 0 0 0 0 0 0 0 0 0 0 0 0
0 0 0 0 0 0 0 0 0 0 0 0 0 0 0 0 0 0 0 0 0 0 0 0 0 0 0 0 0 0 0 0 0 0 0 0 0 0 0 0 0 0 0 0 0 0 0 0 0 0 0 0 0 0
0 0 0 0 0 0 0 0 0 0 0 0 0 0 0 0 0 0 0 0 0 0 0 0 0 0 0 0 0 0 0 0 0 0 0 0 0 0 0 0 0 0 0 0 0 0 0 0 0 0 0 0 0 0
0 0 0 0 0 0 0 0 0 0 0 0 0 0 0 0 0 0 0 0 0 0 0 0 0 0 0 0 0 0 0 0 0 0 0 0 0 0 0 0 0 0 0 0 -0 0 0 0 0 0 0 0 -0 0
0 0 0 0 0 0 0 0 0 0 0 0 0 0 0 0 0 0 0 0 0 0 0 0 0 0 0 0 0 0 0 0 0 0 0 0 0 0 0 0 0 0 -0 -0 -0 0 0 0 0 -0 -0 0 0 0
0 0 0 0 0 0 0 0 0 0 0 0 0 0 0 0 0 0 0 0 0 0 0 0 0 0 0 0 0 0 0 0 0 0 0 0 0 0 0 0 0 -0 -0 -0 -0 -0 0 -0 -0 -0 0 0 -0 -0
0 0 0 0 0 0 0 0 0 0 0 0 0 0 0 0 0 0 0 0 0 0 0 0 0 0 0 0 0 0 0 0 0 0 0 0 0 0 0 0 -0 -0 -0 -0 -0 0 -0 -0 -0 0 0 -0 -0 0
0 0 0 0 0 0 0 0 0 0 0 0 0 0 0 0 0 0 0 0 0 0 0 0 0 0 0 0 0 0 0 0 0 0 0 0 0 0 0 -0 -0 -0 -0 -0 0 0 -0 0 0 0 -0 0 0 0
0 0 0 0 0 0 0 0 0 0 0 0 0 0 0 0 0 0 0 0 0 0 0 0 0 0 0 0 0 0 0 0 0 0 0 0 0 0 -0 -0 -0 -0 -0 -0 0 -0 -0 0 -0 -0 0 0 0 0
0 0 0 0 0 0 0 0 0 0 0 0 0 0 0 0 0 0 0 0 0 0 0 0 0 0 0 0 0 0 0 0 -0 -0 0 0 0 -0 -0 -0 -0 -0 -0 -0 0 0 -0 0 -0 0 0 0 0 0
0 0 0 0 0 0 0 0 0 0 0 0 0 0 0 0 0 0 0 0 0 0 0 0 0 0 0 0 0 0 0 0 -0 -0 0 0 0 -0 -0 -0 0 0 0 0 0 -0 -0 -0 -0 0 0 0 0 0
0 0 0 0 0 0 0 0 0 0 0 0 0 0 0 0 0 0 0 0 0 0 0 0 0 0 0 0 0 0 0 0 0 0 -0 -0 -0 -0 -0 -0 0 -0 -0 -0 -0 -0 -0 -0 -0 -0 0 -0 0 0
0 0 0 0 0 0 0 0 0 0 0 0 0 0 0 0 0 0 0 0 0 0 0 0 0 0 0 0 0 0 0 0 0 0 0 0 -0 0 -0 -0 0 0 0 -0 -0 0 0 0 -0 -0 -0 -0 -0 -0
0 0 0 0 0 0 0 0 0 0 0 0 0 0 0 0 -0 0 -0 -0 0 0 0 0 0 0 0 0 0 0 0 0 0 0 0 -0 -0 -0 -0 0 0 0 0 -0 0 0 0 0 0 -0 -0 -0 -0 -0
0 0 0 0 0 0 0 0 0 0 0 0 0 0 0 0 0 -0 0 0 0 0 0 0 0 0 0 0 0 0 0 0 0 0 0 -0 -0 -0 0 0 -0 0 0 -0 -0 -0 -0 -0 0 0 0 0 -0 0
-0 0 -0 -0 0 0 0 0 0 0 0 0 0 0 0 0 0 0 0 0 0 0 0 0 0 0 0 0 0 0 0 0 0 0 0 0 0 0 0 0 0 0 0 0 0 0 -0 0 0 0 0 0 0 0
0 0 0 0 0 0 0 0 0 0 0 0 0 0 0 0 0 0 0 0 0 0 0 0 0 0 -0 0 0 0 0 0 0 0 0 0 0 -0 -0 0 -0 -0 -0 0 0 0 0 0 0 0 0 0 0 0
0 0 0 0 0 0 0 0 0 0 0 0 0 0 0 0 0 0 0 0 0 0 0 0 0 0 -0 0 0 0 0 0 0 0 0 0 0 0 0 0 0 0 -0 -0 0 0 0 0 0 0 0 0 0 0
0 0 0 -0 -0 0 0 0 0 0 0 0 0 0 0 0 0 0 0 0 0 0 -0 0 0 0 -0 0 0 0 0 0 0 0 0 0 0 0 0 0 0 0 0 0 0 0 0 0 0 0 0 0 0 0
0 0 0 0 -0 0 0 0 0 0 0 0 0 0 0 0 0 0 0 0 0 0 0 0 0 0 0 0 0 0 0 0 0 0 0 0 0 0 0 0 0 0 0 0 0 0 0 0 0 0 0 0 0 0
0 0 0 0 0 0 0 0 0 0 0 0 0 0 0 -0 -0 0 0 0 -0 -0 0 0 0 0 0 0 0 0 0 0 0 0 0 0 0 0 -0 0 0 0 -0 0 0 0 0 0 0 0 0 0 0 0
0 0 0 0 0 0 0 0 0 0 0 0 0 0 0 0 0 0 0 -0 -0 -0 0 0 0 0 0 0 0 0 0 0 0 0 0 0 0 0 0 -0 0 0 0 -0 -0 0 0 0 0 0 0 0 0 0
0 0 0 0 0 0 0 0 -0 -0 0 0 0 0 -0 -0 0 0 0 0 0 0 0 0 0 0 0 0 0 0 0 0 0 0 0 0 0 0 0 0 0 0 -0 -0 -0 -0 -0 0 0 0 0 0 0 0
Wind_Speed_500mb
76 91 75 67 94 90 94 96 87 79 75 76 65 67 60 55 55 48 33 32 20 10 14 10 8 6 6 5 6 2 5 4 7 6 5 6 5 6 4 6 6 6 6 8 3 4 10 29 11 5 9 15 16 11
74 99 78 53 92 97 95 98 89 82 77 75 68 67 60 58 56 51 35 34 28 8 11 12 9 5 9 13 8 5 4 3 5 8 0 4 2 2 4 6 7 6 8 3 9 9 5 19 18 11 20 26 27 27
74 68 67 67 85 92 98 95 93 85 79 78 72 67 61 57 54 52 40 34 27 14 6 7 6 11 9 4 1 2 3 5 6 7 10 4 5 6 5 9 6 3 6 4 5 7 12 21 6 7 24 30 30 33
81 90 77 51 89 95 90 96 95 85 81 80 74 68 62 59 53 47 40 35 30 14 8 6 5 10 12 5 6 9 11 10 6 4 3 4 4 8 6 7 8 5 6 6 11 27 40 31 25 50 51 58 55 53
70 86 91 66 69 95 87 93 98 90 84 84 76 70 63 60 53 46 41 38 32 10 9 10 12 14 12 3 2 1 7 10 7 2 3 6 6 4 2 4 7 15 10 5 17 46 25 44 54 62 80 73 66 65
71 65 92 80 50 92 93 92 97 95 87 88 80 73 67 66 56 50 16 27 31 19 9 3 8 15 16 6 1 7 7 7 6 7 6 7 6 1 2 6 14 26 30 42 37 44 62 74 64 60 63 59 60 53
73 70 93 74 50 84 87 89 93 97 92 90 82 72 67 70 59 24 13 27 36 22 9 6 4 11 20 10 10 10 10 6 6 5 6 5 2 3 3 6 38 49 42 43 39 44 52 56 62 60 67 69 70 66
72 72 80 68 43 75 78 89 96 98 98 92 83 75 71 69 52 23 23 32 37 18 8 7 2 10 23 9 7 9 7 10 6 3 3 4 1 3 6 34 44 45 44 50 53 49 61 67 63 62 58 60 61 62
69 69 77 74 60 76 83 93 101 103 104 99 92 79 71 46 30 27 31 27 33 10 10 8 9 8 25 8 7 9 7 1 2 5 5 8 2 6 17 38 57 53 39 48 50 49 51 45 49 54 58 59 56 58
68 67 84 73 70 71 83 97 105 107 102 100 94 40 14 36 53 45 18 8 13 6 4 7 11 6 20 9 4 7 3 3 1 7 12 5 6 25 21 31 36 38 34 41 50 50 60 68 70 76 78 74 68 69
69 72 86 65 69 77 107 114 117 109 106 91 20 11 65 70 28 9 11 10 11 5 15 15 25 11 16 9 6 6 5 2 0 7 7 5 5 9 31 34 35 37 42 49 56 64 70 73 77 77 81 80 78 75
67 79 73 69 74 115 119 119 117 109 65 46 50 75 51 12 8 9 7 9 9 11 19 23 26 18 16 12 8 10 5 4 8 5 4 4 7 28 38 43 48 53 59 66 66 67 69 67 66 72 74 74 73 73
64 87 72 82 113 115 111 120 101 83 91 107 37 12 15 12 8 16 16 8 7 18 28 31 19 20 13 9 9 7 6 8 1 1 6 7 11 35 45 46 56 62 67 66 67 68 64 68 66 61 67 71 72 69
79 91 98 107 118 127 130 106 101 107 67 15 12 12 9 10 10 10 9 11 14 24 52 59 22 9 9 6 8 6 8 6 2 4 7 6 30 42 43 45 57 67 69 67 68 65 69 61 54 56 64 71 74 76
107 100 130 141 139 122 114 108 93 46 14 13 13 9 12 13 9 22 26 16 16 58 67 38 16 10 7 7 1 4 4 7 8 5 5 22 33 37 40 50 60 65 67 60 64 64 63 51 51 65 64 62 68 74
131 149 143 136 124 112 101 72 52 29 9 8 9 8 7 16 9 19 23 23 55 60 53 18 9 6 3 7 5 10 5 7 4 5 16 29 35 37 43 51 59 65 58 56 69 65 42 42 55 57 54 50 52 48
136 105 132 123 105 87 66 53 35 11 3 3 4 11 19 28 19 21 40 51 69 45 7 11 7 10 8 5 4 4 7 6 3 12 24 29 33 39 43 52 58 58 53 53 56 44 43 46 48 46 42 48 48 34
120 118 117 94 78 68 54 32 12 7 6 18 18 26 30 30 49 43 50 56 44 19 12 6 11 5 7 7 4 6 8 2 8 22 30 27 31 38 43 53 59 57 46 51 39 37 44 39 32 32 35 41 46 57
110 98 87 82 62 37 14 12 12 11 22 15 24 39 47 44 44 43 35 26 26 25 26 9 8 5 6 8 12 11 3 7 22 35 38 27 32 40 50 56 51 42 42 46 18 30 37 27 23 28 42 48 59 64
77 78 72 53 40 13 12 9 13 15 13 14 25 31 23 24 38 35 29 24 26 14 6 4 6 5 8 11 8 5 3 15 27 41 35 31 39 47 50 51 42 37 42 18 5 24 33 24 24 35 44 57 68 71
91 79 42 30 39 21 14 11 15 11 12 15 25 28 17 30 30 30 20 19 6 5 5 5 11 9 7 6 4 5 9 21 26 35 34 44 39 38 52 46 40 29 27 13 16 20 32 36 34 32 42 58 59 59
55 42 33 30 20 16 17 20 12 10 10 9 13 13 13 9 8 7 8 4 4 3 5 7 8 6 9 12 16 20 22 26 29 21 20 25 33 39 58 48 23 26 6 13 24 14 18 30 44 48 57 63 63 61
40 36 23 17 15 13 8 11 9 10 9 5 5 7 6 5 6 8 4 3 2 3 3 6 11 14 15 18 24 30 31 30 16 12 16 22 33 29 47 19 16 25 3 10 26 15 16 18 22 36 40 35 34 46
20 13 13 12 13 7 6 8 8 9 7 5 4 6 6 7 10 3 2 6 7 5 2 5 10 10 6 6 8 9 1 4 9 12 12 19 17 30 23 20 14 16 14 17 25 23 22 25 35 37 42 42 38 32
11 14 11 12 6 7 5 5 6 5 6 7 7 6 9 10 5 6 5 8 13 14 11 9 7 5 4 8 11 13 8 6 6 2 12 20 20 34 34 20 11 20 5 25 23 32 31 38 38 36 33 26 20 28
12 9 6 5 4 4 4 4 6 5 5 7 3 11 13 10 7 3 2 9 14 6 5 7 3 2 4 4 6 2 8 11 8 6 11 21 19 23 19 15 20 14 9 16 25 37 31 24 23 22 21 21 30 33
8 8 10 9 9 11 10 12 11 12 7 5 4 4 3 3 3 3 7 10 12 13 12 12 9 11 15 19 17 12 11 6 9 14 23 14 10 19 17 14 17 22 14 12 20 35 28 28 31 23 30 36 31 28
8 7 7 12 14 12 7 7 4 3 3 1 3 5 4 3 2 4 5 10 14 18 21 22 24 26 30 24 26 22 20 20 18 15 8 6 6 14 23 20 16 17 10 15 13 33 41 40 30 27 29 34 31 29
8 19 15 18 12 10 7 4 5 5 7 5 3 3 4 4 3 7 11 15 15 17 19 20 17 23 23 19 22 22 21 20 12 0 6 3 4 8 20 22 16 16 14 9 18 28 38 43 37 37 30 36 40 34
10 15 6 8 7 5 3 5 8 9 9 5 4 4 7 10 7 10 11 12 9 12 14 16 13 12 12 11 8 11 16 19 18 12 6 7 2 5 12 17 18 20 12 6 20 25 32 41 44 42 43 39 36 32
11 9 10 10 9 8 18 20 17 10 10 8 7 6 6 6 9 11 12 8 10 10 8 11 16 14 12 13 8 7 7 16 24 19 9 5 5 6 10 12 22 24 14 10 19 27 31 42 50 52 43 35 36 36
6 6 12 7 9 20 22 8 5 8 6 6 7 2 2 2 5 7 9 5 6 7 8 12 14 16 19 18 14 12 11 8 26 26 15 8 6 13 9 10 18 20 12 14 22 24 29 34 45 56 56 44 38 40
9 14 15 13 12 14 12 9 6 7 4 3 5 10 10 8 5 7 9 14 13 11 5 10 12 16 22 19 16 12 15 11 18 25 21 15 11 14 11 8 12 12 12 17 25 29 33 38 44 52 51 43 31 39
Wind_Direction_500mb
216 211 218 202 205 203 203 201 200 200 204 198 195 192 192 190 183 178 175 170 165 124 134 130 135 139 107 74 125 64 70 358 55 80 125 211 186 246 335 268 279 213 189 225 114 202 283 352 44 50 315 347 328 323
205 209 217 207 201 201 201 199 198 196 199 198 193 190 189 187 183 179 178 178 176 158 153 156 140 140 106 87 106 58 137 94 112 91 142 108 241 2 173 271 328 264 188 211 169 225 172 62 84 51 5 340 313 292
202 196 209 206 202 200 199 197 194 194 194 195 189 187 185 183 181 183 186 182 179 192 214 240 233 233 248 253 235 187 154 142 132 125 157 170 221 133 208 244 275 261 80 162 26 282 230 322 169 329 339 326 318 303
199 203 202 195 194 199 196 195 192 192 192 191 187 184 180 177 173 177 182 187 183 151 131 124 140 171 199 234 296 262 237 194 156 162 175 139 182 183 220 249 227 224 339 197 253 281 294 301 250 307 308 317 304 298
200 201 205 199 183 195 193 193 190 189 189 186 183 180 174 170 163 166 175 178 174 159 136 144 124 151 172 233 351 22 200 195 200 189 144 226 228 159 285 315 251 224 223 241 273 286 280 288 300 302 306 303 298 293
198 198 198 202 176 195 192 191 189 186 185 181 178 174 170 164 159 156 151 187 180 145 121 113 154 175 184 196 345 148 149 141 167 179 213 241 218 228 233 259 266 268 282 282 273 288 295 300 301 301 300 309 310 306
195 192 196 194 179 192 186 189 187 183 178 175 172 169 166 165 161 168 161 168 168 161 126 111 120 165 178 171 155 157 170 189 200 187 226 264 157 250 123 253 273 288 295 299 305 303 298 307 304 306 306 303 303 301
186 188 199 186 177 193 187 185 182 173 169 169 164 164 162 164 166 131 123 152 166 155 147 119 200 155 183 173 173 183 183 194 210 229 220 215 223 214 256 252 283 293 298 303 311 310 306 308 303 305 310 309 308 301
184 184 186 185 182 188 189 181 174 167 169 165 164 162 157 158 153 138 131 147 166 154 169 154 144 205 173 154 148 165 203 89 186 205 240 138 309 226 239 301 315 326 307 315 324 319 315 315 313 311 310 308 305 300
181 184 181 175 178 180 186 175 167 170 167 162 156 136 133 152 136 131 121 142 171 219 201 209 170 175 167 145 125 136 167 172 193 246 152 147 252 277 341 339 342 342 341 338 328 318 315 309 310 309 307 305 299 296
177 181 170 165 171 174 173 167 168 165 161 145 128 101 133 135 107 94 144 178 175 207 205 202 188 145 164 130 161 196 173 176 346 260 155 203 267 299 349 349 346 341 334 326 319 313 310 307 306 306 304 301 297 295
171 179 161 164 168 168 168 168 166 157 154 142 128 126 123 119 125 155 185 162 190 208 184 170 172 156 146 146 125 171 144 66 249 177 176 257 244 345 348 345 342 342 338 331 327 323 320 313 309 306 304 301 298 295
167 164 159 164 167 167 166 165 155 142 128 122 110 111 144 166 162 180 180 206 193 180 170 160 141 147 140 161 107 120 140 223 271 25 233 216 306 342 345 345 339 337 333 329 330 330 324 321 321 315 309 304 300 295
161 163 162 163 164 161 157 147 139 129 126 90 118 143 191 178 209 190 176 173 184 163 154 153 133 135 124 102 135 150 219 126 245 231 246 259 336 337 336 335 336 334 335 332 330 330 327 324 318 317 319 312 304 294
147 152 155 154 154 149 141 140 133 116 88 106 136 178 198 202 177 196 179 156 132 150 147 128 85 96 56 109 128 88 186 230 206 206 237 320 329 331 330 331 332 334 335 333 336 329 325 326 324 326 326 316 308 302
147 145 142 148 144 139 131 116 105 91 64 120 167 144 175 136 141 149 174 135 143 138 134 102 91 78 159 138 131 210 195 216 219 219 313 325 331 330 329 332 333 330 333 330 336 333 340 338 341 334 336 346 357 2
130 124 143 142 129 116 106 100 100 72 94 154 107 135 118 121 128 128 139 134 147 137 104 109 109 185 129 129 217 187 193 206 278 312 327 329 327 327 329 332 339 338 333 335 338 345 337 341 342 345 2 21 40 55
125 131 122 115 111 105 97 84 91 85 73 53 84 92 104 112 125 122 120 140 148 115 124 144 122 112 165 174 202 223 203 238 335 334 334 334 328 328 333 333 331 335 325 334 350 354 352 359 8 18 33 50 70 82
117 114 112 110 104 99 87 60 65 77 48 54 86 97 104 113 117 128 128 132 134 118 118 99 94 155 201 198 183 184 188 344 335 333 330 328 332 335 335 335 332 337 336 333 331 8 10 13 35 61 65 77 84 81
107 111 115 113 98 75 84 61 63 69 52 34 80 87 84 99 110 115 119 125 128 104 87 104 178 177 175 167 177 203 297 339 336 335 334 336 341 339 340 338 339 333 339 347 90 41 30 43 79 78 89 93 93 90
124 119 121 122 80 67 82 64 69 75 72 69 76 88 83 109 112 114 109 132 94 106 121 133 142 119 122 156 212 262 308 321 320 333 329 328 346 351 344 337 343 352 350 116 69 65 58 74 84 96 94 95 97 102
117 133 120 87 66 60 57 44 78 82 68 74 55 64 76 64 69 68 108 77 120 146 152 158 190 219 236 257 269 276 283 294 309 316 321 326 332 338 340 332 340 349 22 151 114 111 106 87 88 87 98 97 97 98
118 107 72 53 69 59 52 37 65 44 77 68 60 72 49 80 104 134 98 174 218 253 259 289 279 286 300 294 292 283 273 281 292 279 306 332 330 329 338 351 12 2 51 186 169 160 148 124 109 112 105 110 111 114
82 63 55 53 54 79 72 51 76 85 94 84 84 100 140 145 146 102 216 209 172 144 208 264 255 251 302 335 358 357 149 224 275 330 351 347 334 344 360 355 33 31 137 139 146 141 139 143 138 131 120 116 111 105
65 38 70 66 68 96 92 114 110 149 120 143 159 139 146 148 154 184 200 168 143 133 111 106 114 102 88 69 72 75 56 338 5 98 16 1 16 9 12 360 63 39 155 138 139 151 147 146 146 144 140 124 115 124
72 46 61 107 124 111 149 135 161 144 146 147 148 127 158 157 175 163 83 128 135 140 156 166 163 285 231 8 17 49 13 3 20 327 336 353 360 351 350 6 30 90 88 179 177 165 167 171 165 173 164 152 141 137
76 53 56 58 88 104 91 78 65 58 53 50 335 50 53 152 178 138 153 166 182 211 249 262 256 262 278 267 253 281 302 299 310 312 340 6 355 354 17 24 42 52 85 164 174 174 168 165 156 148 156 150 146 134
93 100 111 82 69 70 88 71 66 88 107 89 45 43 90 182 206 188 221 230 253 265 270 264 263 269 279 271 255 262 252 261 284 332 311 113 336 23 34 34 38 40 82 99 164 169 168 173 166 143 157 158 151 148
84 127 104 104 94 71 62 82 116 151 155 149 103 132 188 118 312 314 297 295 278 269 277 268 266 269 264 259 248 250 244 244 260 108 111 187 59 47 32 26 25 21 38 125 139 174 176 172 154 146 151 156 145 136
150 170 108 71 67 71 89 101 122 129 141 143 104 125 186 208 265 284 315 316 285 255 244 243 238 254 262 256 249 244 229 217 206 187 110 95 138 88 55 24 19 19 25 91 158 149 171 169 159 152 148 143 144 142
131 135 85 69 77 90 133 125 120 119 143 152 158 151 199 230 252 258 301 285 279 283 241 241 225 246 239 229 242 215 205 214 195 180 159 107 158 118 99 34 14 16 33 96 149 156 162 175 171 153 140 139 155 158
155 131 125 114 117 134 133 125 96 87 81 79 47 100 91 299 278 318 355 9 352 297 251 233 234 228 218 221 228 207 184 194 190 179 165 151 186 156 128 56 29 17 44 100 129 139 146 157 165 162 146 131 126 140
134 123 110 103 132 160 172 143 121 132 131 112 82 52 30 353 318 337 26 11 353 343 292 255 236 221 214 213 223 211 198 196 184 183 172 156 174 162 132 84 54 54 88 104 119 129 139 148 153 158 159 154 138 146
Wind_Speed_850mb
76 91 75 67 94 90 94 96 87 79 75 76 65 67 60 55 55 48 33 32 20 10 14 10 8 6 6 5 6 2 5 4 7 6 5 6 5 6 4 6 6 6 6 8 3 4 10 29 11 5 9 15 16 11
74 99 78 53 92 97 95 98 89 82 77 75 68 67 60 58 56 51 35 34 28 8 11 12 9 5 9 13 8 5 4 3 5 8 0 4 2 2 4 6 7 6 8 3 9 9 5 19 18 11 20 26 27 27
74 68 67 67 85 92 98 95 93 85 79 78 72 67 61 57 54 52 40 34 27 14 6 7 6 11 9 4 1 2 3 5 6 7 10 4 5 6 5 9 6 3 6 4 5 7 12 21 6 7 24 30 30 33
81 90 77 51 89 95 90 96 95 85 81 80 74 68 62 59 53 47 40 35 30 14 8 6 5 10 12 5 6 9 11 10 6 4 3 4 4 8 6 7 8 5 6 6 11 27 40 31 25 50 51 58 55 53
70 86 91 66 69 95 87 93 98 90 84 84 76 70 63 60 53 46 41 38 32 10 9 10 12 14 12 3 2 1 7 10 7 2 3 6 6 4 2 4 7 15 10 5 17 46 25 44 54 62 80 73 66 65
71 65 92 80 50 92 93 92 97 95 87 88 80 73 67 66 56 50 16 27 31 19 9 3 8 15 16 6 1 7 7 7 6 7 6 7 6 1 2 6 14 26 30 42 37 44 62 74 64 60 63 59 60 53
73 70 93 74 50 84 87 89 93 97 92 90 82 72 67 70 59 24 13 27 36 22 9 6 4 11 20 10 10 10 10 6 6 5 6 5 2 3 3 6 38 49 42 43 39 44 52 56 62 60 67 69 70 66
72 72 80 68 43 75 78 89 96 98 98 92 83 75 71 69 52 23 23 32 37 18 8 7 2 10 23 9 7 9 7 10 6 3 3 4 1 3 6 34 44 45 44 50 53 49 61 67 63 62 58 60 61 62
69 69 77 74 60 76 83 93 101 103 104 99 92 79 71 46 30 27 31 27 33 10 10 8 9 8 25 8 7 9 7 1 2 5 5 8 2 6 17 38 57 53 39 48 50 49 51 45 49 54 58 59 56 58
68 67 84 73 70 71 83 97 105 107 102 100 94 40 14 36 53 45 18 8 13 6 4 7 11 6 20 9 4 7 3 3 1 7 12 5 6 25 21 31 36 38 34 41 50 50 60 68 70 76 78 74 68 69
69 72 86 65 69 77 107 114 117 109 106 91 20 11 65 70 28 9 11 10 11 5 15 15 25 11 16 9 6 6 5 2 0 7 7 5 5 9 31 34 35 37 42 49 56 64 70 73 77 77 81 80 78 75
67 79 73 69 74 115 119 119 117 109 65 46 50 75 51 12 8 9 7 9 9 11 19 23 26 18 16 12 8 10 5 4 8 5 4 4 7 28 38 43 48 53 59 66 66 67 69 67 66 72 74 74 73 73
64 87 72 82 113 115 111 120 101 83 91 107 37 12 15 12 8 16 16 8 7 18 28 31 19 20 13 9 9 7 6 8 1 1 6 7 11 35 45 46 56 62 67 66 67 68 64 68 66 61 67 71 72 69
79 91 98 107 118 127 130 106 101 107 67 15 12 12 9 10 10 10 9 11 14 24 52 59 22 9 9 6 8 6 8 6 2 4 7 6 30 42 43 45 57 67 69 67 68 65 69 61 54 56 64 71 74 76
107 100 130 141 139 122 114 108 93 46 14 13 13 9 12 13 9 22 26 16 16 58 67 38 16 10 7 7 1 4 4 7 8 5 5 22 33 37 40 50 60 65 67 60 64 64 63 51 51 65 64 62 68 74
131 149 143 136 124 112 101 72 52 29 9 8 9 8 7 16 9 19 23 23 55 60 53 18 9 6 3 7 5 10 5 7 4 5 16 29 35 37 43 51 59 65 58 56 69 65 42 42 55 57 54 50 52 48
136 105 132 123 105 87 66 53 35 11 3 3 4 11 19 28 19 21 40 51 69 45 7 11 7 10 8 5 4 4 7 6 3 12 24 29 33 39 43 52 58 58 53 53 56 44 43 46 48 46 42 48 48 34
120 118 117 94 78 68 54 32 12 7 6 18 18 26 30 30 49 43 50 56 44 19 12 6 11 5 7 7 4 6 8 2 8 22 30 27 31 38 43 53 59 57 46 51 39 37 44 39 32 32 35 41 46 57
110 98 87 82 62 37 14 12 12 11 22 15 24 39 47 44 44 43 35 26 26 25 26 9 8 5 6 8 12 11 3 7 22 35 38 27 32 40 50 56 51 42 42 46 18 30 37 27 23 28 42 48 59 64
77 78 72 53 40 13 12 9 13 15 13 14 25 31 23 24 38 35 29 24 26 14 6 4 6 5 8 11 8 5 3 15 27 41 35 31 39 47 50 51 42 37 42 18 5 24 33 24 24 35 44 57 68 71
91 79 42 30 39 21 14 11 15 11 12 15 25 28 17 30 30 30 20 19 6 5 5 5 11 9 7 6 4 5 9 21 26 35 34 44 39 38 52 46 40 29 27 13 16 20 32 36 34 32 42 58 59 59
55 42 33 30 20 16 17 20 12 10 10 9 13 13 13 9 8 7 8 4 4 3 5 7 8 6 9 12 16 20 22 26 29 21 20 25 33 39 58 48 23 26 6 13 24 14 18 30 44 48 57 63 63 61
40 36 23 17 15 13 8 11 9 10 9 5 5 7 6 5 6 8 4 3 2 3 3 6 11 14 15 18 24 30 31 30 16 12 16 22 33 29 47 19 16 25 3 10 26 15 16 18 22 36 40 35 34 46
20 13 13 12 13 7 6 8 8 9 7 5 4 6 6 7 10 3 2 6 7 5 2 5 10 10 6 6 8 9 1 4 9 12 12 19 17 30 23 20 14 16 14 17 25 23 22 25 35 37 42 42 38 32
11 14 11 12 6 7 5 5 6 5 6 7 7 6 9 10 5 6 5 8 13 14 11 9 7 5 4 8 11 13 8 6 6 2 12 20 20 34 34 20 11 20 5 25 23 32 31 38 38 36 33 26 20 28
12 9 6 5 4 4 4 4 6 5 5 7 3 11 13 10 7 3 2 9 14 6 5 7 3 2 4 4 6 2 8 11 8 6 11 21 19 23 19 15 20 14 9 16 25 37 31 24 23 22 21 21 30 33
8 8 10 9 9 11 10 12 11 12 7 5 4 4 3 3 3 3 7 10 12 13 12 12 9 11 15 19 17 12 11 6 9 14 23 14 10 19 17 14 17 22 14 12 20 35 28 28 31 23 30 36 31 28
8 7 7 12 14 12 7 7 4 3 3 1 3 5 4 3 2 4 5 10 14 18 21 22 24 26 30 24 26 22 20 20 18 15 8 6 6 14 23 20 16 17 10 15 13 33 41 40 30 27 29 34 31 29
8 19 15 18 12 10 7 4 5 5 7 5 3 3 4 4 3 7 11 15 15 17 19 20 17 23 23 19 22 22 21 20 12 0 6 3 4 8 20 22 16 16 14 9 18 28 38 43 37 37 30 36 40 34
10 15 6 8 7 5 3 5 8 9 9 5 4 4 7 10 7 10 11 12 9 12 14 16 13 12 12 11 8 11 16 19 18 12 6 7 2 5 12 17 18 20 12 6 20 25 32 41 44 42 43 39 36 32
11 9 10 10 9 8 18 20 17 10 10 8 7 6 6 6 9 11 12 8 10 10 8 11 16 14 12 13 8 7 7 16 24 19 9 5 5 6 10 12 22 24 14 10 19 27 31 42 50 52 43 35 36 36
6 6 12 7 9 20 22 8 5 8 6 6 7 2 2 2 5 7 9 5 6 7 8 12 14 16 19 18 14 12 11 8 26 26 15 8 6 13 9 10 18 20 12 14 22 24 29 34 45 56 56 44 38 40
9 14 15 13 12 14 12 9 6 7 4 3 5 10 10 8 5 7 9 14 13 11 5 10 12 16 22 19 16 12 15 11 18 25 21 15 11 14 11 8 12 12 12 17 25 29 33 38 44 52 51 43 31 39
Wind_Direction_850mb
216 211 218 202 205 203 203 201 200 200 204 198 195 192 192 190 183 178 175 170 165 124 134 130 135 139 107 74 125 64 70 358 55 80 125 211 186 246 335 268 279 213 189 225 114 202 283 352 44 50 315 347 328 323
205 209 217 207 201 201 201 199 198 196 199 198 193 190 189 187 183 179 178 178 176 158 153 156 140 140 106 87 106 58 137 94 112 91 142 108 241 2 173 271 328 264 188 211 169 225 172 62 84 51 5 340 313 292
202 196 209 206 202 200 199 197 194 194 194 195 189 187 185 183 181 183 186 182 179 192 214 240 233 233 248 253 235 187 154 142 132 125 157 170 221 133 208 244 275 261 80 162 26 282 230 322 169 329 339 326 318 303
199 203 202 195 194 199 196 195 192 192 192 191 187 184 180 177 173 177 182 187 183 151 131 124 140 171 199 234 296 262 237 194 156 162 175 139 182 183 220 249 227 224 339 197 253 281 294 301 250 307 308 317 304 298
200 201 205 199 183 195 193 193 190 189 189 186 183 180 174 170 163 166 175 178 174 159 136 144 124 151 172 233 351 22 200 195 200 189 144 226 228 159 285 315 251 224 223 241 273 286 280 288 300 302 306 303 298 293
198 198 198 202 176 195 192 191 189 186 185 181 178 174 170 164 159 156 151 187 180 145 121 113 154 175 184 196 345 148 149 141 167 179 213 241 218 228 233 259 266 268 282 282 273 288 295 300 301 301 300 309 310 306
195 192 196 194 179 192 186 189 187 183 178 175 172 169 166 165 161 168 161 168 168 161 126 111 120 165 178 171 155 157 170 189 200 187 226 264 157 250 123 253 273 288 295 299 305 303 298 307 304 306 306 303 303 301
186 188 199 186 177 193 187 185 182 173 169 169 164 164 162 164 166 131 123 152 166 155 147 119 200 155 183 173 173 183 183 194 210 229 220 215 223 214 256 252 283 293 298 303 311 310 306 308 303 305 310 309 308 301
184 184 186 185 182 188 189 181 174 167 169 165 164 162 157 158 153 138 131 147 166 154 169 154 144 205 173 154 148 165 203 89 186 205 240 138 309 226 239 301 315 326 307 315 324 319 315 315 313 311 310 308 305 300
181 184 181 175 178 180 186 175 167 170 167 162 156 136 133 152 136 131 121 142 171 219 201 209 170 175 167 145 125 136 167 172 193 246 152 147 252 277 341 339 342 342 341 338 328 318 315 309 310 309 307 305 299 296
177 181 170 165 171 174 173 167 168 165 161 145 128 101 133 135 107 94 144 178 175 207 205 202 188 145 164 130 161 196 173 176 346 260 155 203 267 299 349 349 346 341 334 326 319 313 310 307 306 306 304 301 297 295
171 179 161 164 168 168 168 168 166 157 154 142 128 126 123 119 125 155 185 162 190 208 184 170 172 156 146 146 125 171 144 66 249 177 176 257 244 345 348 345 342 342 338 331 327 323 320 313 309 306 304 301 298 295
167 164 159 164 167 167 166 165 155 142 128 122 110 111 144 166 162 180 180 206 193 180 170 160 141 147 140 161 107 120 140 223 271 25 233 216 306 342 345 345 339 337 333 329 330 330 324 321 321 315 309 304 300 295
161 163 162 163 164 161 157 147 139 129 126 90 118 143 191 178 209 190 176 173 184 163 154 153 133 135 124 102 135 150 219 126 245 231 246 259 336 337 336 335 336 334 335 332 330 330 327 324 318 317 319 312 304 294
147 152 155 154 154 149 141 140 133 116 88 106 136 178 198 202 177 196 179 156 132 150 147 128 85 96 56 109 128 88 186 230 206 206 237 320 329 331 330 331 332 334 335 333 336 329 325 326 324 326 326 316 308 302
147 145 142 148 144 139 131 116 105 91 64 120 167 144 175 136 141 149 174 135 143 138 134 102 91 78 159 138 131 210 195 216 219 219 313 325 331 330 329 332 333 330 333 330 336 333 340 338 341 334 336 346 357 2
130 124 143 142 129 116 106 100 100 72 94 154 107 135 118 121 128 128 139 134 147 137 104 109 109 185 129 129 217 187 193 206 278 312 327 329 327 327 329 332 339 338 333 335 338 345 337 341 342 345 2 21 40 55
125 131 122 115 111 105 97 84 91 85 73 53 84 92 104 112 125 122 120 140 148 115 124 144 122 112 165 174 202 223 203 238 335 334 334 334 328 328 333 333 331 335 325 334 350 354 352 359 8 18 33 50 70 82
117 114 112 110 104 99 87 60 65 77 48 54 86 97 104 113 117 128 128 132 134 118 118 99 94 155 201 198 183 184 188 344 335 333 330 328 332 335 335 335 332 337 336 333 331 8 10 13 35 61 65 77 84 81
107 111 115 113 98 75 84 61 63 69 52 34 80 87 84 99 110 115 119 125 128 104 87 104 178 177 175 167 177 203 297 339 336 335 334 336 341 339 340 338 339 333 339 347 90 41 30 43 79 78 89 93 93 90
124 119 121 122 80 67 82 64 69 75 72 69 76 88 83 109 112 114 109 132 94 106 121 133 142 119 122 156 212 262 308 321 320 333 329 328 346 351 344 337 343 352 350 116 69 65 58 74 84 96 94 95 97 102
117 133 120 87 66 60 57 44 78 82 68 74 55 64 76 64 69 68 108 77 120 146 152 158 190 219 236 257 269 276 283 294 309 316 321 326 332 338 340 332 340 349 22 151 114 111 106 87 88 87 98 97 97 98
118 107 72 53 69 59 52 37 65 44 77 68 60 72 49 80 104 134 98 174 218 253 259 289 279 286 300 294 292 283 273 281 292 279 306 332 330 329 338 351 12 2 51 186 169 160 148 124 109 112 105 110 111 114
82 63 55 53 54 79 72 51 76 85 94 84 84 100 140 145 146 102 216 209 172 144 208 264 255 251 302 335 358 357 149 224 275 330 351 347 334 344 360 355 33 31 137 139 146 141 139 143 138 131 120 116 111 105
65 38 70 66 68 96 92 114 110 149 120 143 159 139 146 148 154 184 200 168 143 133 111 106 114 102 88 69 72 75 56 338 5 98 16 1 16 9 12 360 63 39 155 138 139 151 147 146 146 144 140 124 115 124
72 46 61 107 124 111 149 135 161 144 146 147 148 127 158 157 175 163 83 128 135 140 156 166 163 285 231 8 17 49 13 3 20 327 336 353 360 351 350 6 30 90 88 179 177 165 167 171 165 173 164 152 141 137
76 53 56 58 88 104 91 78 65 58 53 50 335 50 53 152 178 138 153 166 182 211 249 262 256 262 278 267 253 281 302 299 310 312 340 6 355 354 17 24 42 52 85 164 174 174 168 165 156 148 156 150 146 134
93 100 111 82 69 70 88 71 66 88 107 89 45 43 90 182 206 188 221 230 253 265 270 264 263 269 279 271 255 262 252 261 284 332 311 113 336 23 34 34 38 40 82 99 164 169 168 173 166 143 157 158 151 148
84 127 104 104 94 71 62 82 116 151 155 149 103 132 188 118 312 314 297 295 278 269 277 268 266 269 264 259 248 250 244 244 260 108 111 187 59 47 32 26 25 21 38 125 139 174 176 172 154 146 151 156 145 136
150 170 108 71 67 71 89 101 122 129 141 143 104 125 186 208 265 284 315 316 285 255 244 243 238 254 262 256 249 244 229 217 206 187 110 95 138 88 55 24 19 19 25 91 158 149 171 169 159 152 148 143 144 142
131 135 85 69 77 90 133 125 120 119 143 152 158 151 199 230 252 258 301 285 279 283 241 241 225 246 239 229 242 215 205 214 195 180 159 107 158 118 99 34 14 16 33 96 149 156 162 175 171 153 140 139 155 158
155 131 125 114 117 134 133 125 96 87 81 79 47 100 91 299 278 318 355 9 352 297 251 233 234 228 218 221 228 207 184 194 190 179 165 151 186 156 128 56 29 17 44 100 129 139 146 157 165 162 146 131 126 140
134 123 110 103 132 160 172 143 121 132 131 112 82 52 30 353 318 337 26 11 353 343 292 255 236 221 214 213 223 211 198 196 184 183 172 156 174 162 132 84 54 54 88 104 119 129 139 148 153 158 159 154 138 146